This is the latest recevied weather packets stored in our database for station/object K4KMJ. If no packets are shown the sender has not sent any weather packets the latest 10 day(s).
| Time | Temp. | Humidity | Pressure | Rain* | Wind** | Luminosity | Snow |
|---|---|---|---|---|---|---|---|
| 1788191959 | 30.56° C | 81% | 1020.2 hPa | 0 mm | - | 137 W/m² | - |
| 1788191659 | 31.11° C | 81% | 1020.1 hPa | 0 mm | - | 121 W/m² | - |
| 1788191355 | 31.11° C | 80% | 1020.2 hPa | 0 mm | - | 693 W/m² | - |
| 1788191051 | 31.11° C | 79% | 1020.2 hPa | 0 mm | - | 138 W/m² | - |
| 1788190749 | 32.22° C | 78% | 1020.1 hPa | 0 mm | - | 658 W/m² | - |
| 1788190446 | 31.67° C | 79% | 1020.2 hPa | 0 mm | - | 771 W/m² | - |
| 1788190141 | 31.67° C | 81% | 1020.3 hPa | 0 mm | - | 778 W/m² | - |
| 1788189837 | 31.67° C | 81% | 1020.3 hPa | 0 mm | - | 159 W/m² | - |
| 1788189532 | 30.56° C | 84% | 1020.2 hPa | 0 mm | - | 767 W/m² | - |
| 1788189231 | 30.56° C | 85% | 1020.2 hPa | 0 mm | - | 171 W/m² | - |
| 1788188926 | 30° C | 85% | 1020.1 hPa | 0 mm | - | 162 W/m² | - |
| 1788188622 | 30.56° C | 86% | 1020 hPa | 0 mm | - | 137 W/m² | - |
| 1788188321 | 30.56° C | 88% | 1020.3 hPa | 0 mm | - | 708 W/m² | - |
| 1788188018 | 30° C | 88% | 1020.2 hPa | 0 mm | - | 251 W/m² | - |
| 1788187713 | 30° C | 88% | 1019.8 hPa | 0 mm | - | 152 W/m² | - |
| 1788187409 | 29.44° C | 89% | 1020.2 hPa | 0 mm | - | 128 W/m² | - |
| 1788187109 | 29.44° C | 89% | 1019.9 hPa | 0 mm | - | 126 W/m² | - |
| 1788186804 | 29.44° C | 92% | 1019.7 hPa | 0 mm | - | 600 W/m² | - |
| 1788186500 | 28.89° C | 92% | 1020 hPa | 0 mm | - | 120 W/m² | - |
| 1788186195 | 29.44° C | 91% | 1019.9 hPa | 0 mm | - | 151 W/m² | - |
| 1788185894 | 29.44° C | 90% | 1020.2 hPa | 0 mm | - | 129 W/m² | - |
| 1788185583 | 30° C | 90% | 1019.8 hPa | 0 mm | - | 117 W/m² | - |
| 1788185278 | 29.44° C | 92% | 1019.9 hPa | 0 mm | - | 531 W/m² | - |
| 1788184972 | 28.89° C | 92% | 1019.9 hPa | 0 mm | - | 115 W/m² | - |
| 1788184670 | 28.89° C | 92% | 1019.8 hPa | 0 mm | - | 116 W/m² | - |
* Rain latest hour (hover to see other rain measurements)
** Current wind speed in m/s (hover to see current wind gust speed)